Home   Weather   Kingston   Past weeks
Flag for Norfolk Island

Past Weather in Kingston, Norfolk Island — Yesterday and Last 2 Weeks

Now
64 °F

Broken clouds.


Feels Like: 64 °F
Forecast: 62 / 57 °F
Wind: 18 mph from South

Location: Norfolk Island Airport

Current Time: Jul 21, 2019 at 3:53:07 pm

Latest Report: Jul 21, 2019 at 3:00 pm


Visibility: N/A

Pressure: 29.98 "Hg

Humidity: 60%

Dew Point: 50 °F

Location of KingstonLocation

Past Weather in Kingston — Graph

°F

Kingston Temperature Yesterday

Maximum temperature yesterday: 66 °F (at 11:30 am)
Minimum temperature yesterday: 57 °F (at 12:37 pm)
Average temperature yesterday: 62 °F

High & Low Weather Summary for the Past Weeks

 TemperatureHumidityPressure
High70 °F (Jul 14, 12:00 pm)100% (Jul 14, 3:30 am)30.39 "Hg (Jul 14, 3:30 am)
Low54 °F (Jul 10, 3:00 am)46% (Jul 10, 12:00 pm)29.71 "Hg (Jul 16, 1:30 am)
Average62 °F71%30.03 "Hg
* Reported Jul 6 2:00 pm — Jul 21 2:30 pm, Kingston. Weather by CustomWeather, © 2019

Note: Actual official high and low records may vary slightly from our data, if they occured in-between our weather recording intervals... More about our weather records

Advertising

Kingston Weather History for the Previous 24 Hours

Scroll right to see more
 ConditionsComfort  
Time TempWeatherWind HumidityBarometerVisibility
2:30 pm
Sun, Jul 21
64 °FBroken clouds.15 mph64%29.98 "HgN/A
2:00 pm63 °FScattered clouds.15 mph68%29.98 "HgN/A
1:30 pm63 °FPartly sunny.17 mph73%29.98 "HgN/A
1:00 pm64 °FBroken clouds.16 mph68%30.01 "HgN/A
12:30 pm63 °FBroken clouds.24 mph68%30.01 "HgN/A
12:19 pm63 °FBroken clouds.20 mph68%30.01 "HgN/A
12:00 pm64 °FScattered clouds.17 mph60%30.01 "HgN/A
11:00 am64 °FScattered clouds.21 mph60%30.01 "HgN/A
10:42 am64 °FScattered clouds.21 mph60%30.01 "HgN/A
10:30 am63 °FBroken clouds.17 mph64%30.01 "HgN/A
10:00 am63 °FPartly sunny.20 mph68%30.01 "HgN/A
9:30 am63 °FPartly sunny.22 mph64%30.01 "Hg6 mi
9:00 am63 °FScattered clouds.23 mph64%30.01 "Hg4 mi
8:30 am61 °FScattered clouds.21 mph72%30.01 "HgN/A
8:00 am61 °FSprinkles. Broken clouds.23 mph63%30.01 "HgN/A
7:34 am61 °FMostly cloudy.21 mph68%29.98 "HgN/A
7:02 am61 °FBroken clouds.23 mph63%29.98 "HgN/A
6:30 am61 °FPartly cloudy.24 mph72%29.98 "HgN/A
6:00 am61 °FPartly cloudy.23 mph59%29.98 "HgN/A
5:30 am59 °FPartly cloudy.23 mph77%29.98 "Hg5 mi
5:00 am59 °FPassing clouds.22 mph77%29.95 "HgN/A
4:30 am57 °FSprinkles. Partly cloudy.21 mph82%29.95 "HgN/A
4:10 am57 °FSprinkles. Partly cloudy.23 mph82%29.98 "Hg4 mi
4:03 am59 °FPartly cloudy.20 mph77%29.95 "HgN/A
3:31 am59 °FLight rain. Passing clouds.26 mph82%29.98 "Hg4 mi
3:19 am61 °FPassing clouds.22 mph68%29.95 "HgN/A
3:00 am61 °FPartly cloudy.22 mph72%29.95 "HgN/A
2:30 am61 °FPassing clouds.22 mph68%29.98 "HgN/A
2:01 am63 °FPassing clouds.24 mph64%29.98 "HgN/A
1:37 am63 °FPartly cloudy.23 mph59%29.98 "HgN/A
1:15 am61 °FPassing clouds.21 mph68%29.98 "HgN/A
12:30 am61 °FPassing clouds.18 mph72%29.98 "HgN/A
12:00 am61 °FPassing clouds.25 mph72%29.98 "HgN/A
11:30 pm
Sat, Jul 20
61 °FPassing clouds.20 mph68%29.98 "HgN/A
11:00 pm61 °FPassing clouds.21 mph63%30.01 "HgN/A
10:30 pm61 °FClear.23 mph63%30.01 "HgN/A
10:04 pm61 °FPassing clouds.21 mph63%30.01 "HgN/A
10:00 pm61 °FPassing clouds.22 mph63%30.01 "HgN/A
9:30 pm61 °FPassing clouds.21 mph68%30.01 "HgN/A
9:01 pm63 °FPartly cloudy.18 mph68%30.01 "HgN/A
8:30 pm63 °FMostly cloudy.22 mph59%30.01 "HgN/A
8:00 pm61 °FPassing clouds.17 mph68%30.01 "HgN/A
7:30 pm61 °FPartly cloudy.23 mph68%30.01 "HgN/A
7:11 pm61 °FPartly cloudy.25 mph72%30.01 "HgN/A
6:42 pm61 °FPassing clouds.25 mph63%29.98 "HgN/A
6:30 pm63 °FPassing clouds.24 mph59%29.98 "HgN/A
6:07 pm61 °FPartly cloudy.22 mph63%29.98 "HgN/A
6:00 pm61 °FPassing clouds.24 mph63%29.98 "HgN/A
5:30 pm61 °FPassing clouds.22 mph59%29.98 "HgN/A
5:14 pm61 °FPassing clouds.23 mph59%29.98 "HgN/A
4:30 pm63 °FBroken clouds.22 mph59%29.98 "HgN/A
4:00 pm63 °FScattered clouds.23 mph56%29.95 "HgN/A
3:32 pm63 °FScattered clouds.22 mph56%29.95 "HgN/A
3:01 pm63 °FScattered clouds.25 mph59%29.95 "HgN/A
Weather by CustomWeather, © 2019

See weather overview